Regional Weather Roundup
Issued by NWS

Home | Current Version | Previous Version | Graphics & Text | Print | Product List | Glossary Off
Versions: 1 2 3 4 5 6 7 8 9 10 11 12 13 14 15 16 17 18 19 20 21 22 23 24 25 26 27 28 29 30 31 32 33 34 35 36 37 38 39 40 41 42 43 44 45 46 47 48 49 50

000
ASUS43 KDTX 101801
RWRMI
MICHIGAN HOURLY REGIONAL WEATHER ROUNDUP
NATIONAL WEATHER SERVICE DETROIT/PONTIAC MI
200 PM EDT THU JUL 10 2014

NOTE: "FAIR" INDICATES FEW OR NO CLOUDS BELOW 12,000 FEET WITH NO
SIGNIFICANT WEATHER AND/OR OBSTRUCTION TO VISIBILITY.

MIZ047>049-052>055-059>063-066>070-074>076-081>083-101900-
SOUTHEAST LOWER MICHIGAN

CITY           SKY/WX    TMP DP  RH WIND       PRES   REMARKS
ADRIAN         MOSUNNY   76  52  43 N7        30.17S
6HR MIN TEMP:  60; 6HR MAX TEMP:  76;

ALMA           SUNNY     70  45  40 NE5       30.20F
ANN ARBOR      PTSUNNY   76  53  44 W6        30.17S
BAD AXE        MOSUNNY   68  53  60 E6        30.20F
6HR MIN TEMP:  60; 6HR MAX TEMP:  68;

CARO           MOSUNNY   73  56  53 W6        30.19S
DETROIT CITY   MOSUNNY   75  55  49 SE9       30.16S
6HR MIN TEMP:  67; 6HR MAX TEMP:  77;

DETROIT        PTSUNNY   75  53  46 CALM      30.16S
6HR MIN TEMP:  64; 6HR MAX TEMP:  77;

FLINT          PTSUNNY   72  54  53 NE8       30.18S
6HR MIN TEMP:  63; 6HR MAX TEMP:  73;

GROSSE ILE     PTSUNNY   73  61  64 S8        30.15S
HILLSDALE      PTSUNNY   71  52  49 CALM      30.19S
6HR MIN TEMP:  59; 6HR MAX TEMP:  73;

HOWELL         PTSUNNY   71  53  53 N6        30.18F

CITY           SKY/WX    TMP DP  RH WIND       PRES   REMARKS
JACKSON        PTSUNNY   71  55  56 N7        30.19S
6HR MIN TEMP:  58; 6HR MAX TEMP:  74;

LAMBERTVILLE   MOSUNNY   73  54  49 CALM      30.16S
LANSING        MOSUNNY   72  54  53 VRB5      30.19F
6HR MIN TEMP:  59; 6HR MAX TEMP:  73;

LAPEER         CLOUDY    70  55  58 N9        30.19S
MASON          MOSUNNY   71  54  56 CALM      30.19S
MONROE         PTSUNNY   73  55  53 SE7       30.15S
MT. CLEMENS    MOSUNNY   74  54  49 VRB3      30.16R
6HR MIN TEMP:  63; 6HR MAX TEMP:  75;

PONTIAC        PTSUNNY   73  54  51 NW8       30.17R
6HR MIN TEMP:  61; 6HR MAX TEMP:  75;

PORT HOPE        N/A     62  50  64 NE9       30.21S
6HR MIN TEMP:  60; 6HR MAX TEMP:  62;

PORT HURON     CLOUDY    70  59  68 N8        30.18R
TRI CITIES     MOSUNNY   71  49  45 SW5       30.21S
6HR MIN TEMP:  58; 6HR MAX TEMP:  72;

TROY           CLOUDY    73  53  50 CALM      30.18R
SAGINAW HB     SUNNY     70  52  52 CALM      30.19S
$$
MIZ043>046-050>051-056>058-064>065-071>073-077>080-101900-
SOUTHWEST LOWER MICHIGAN

CITY           SKY/WX    TMP DP  RH WIND       PRES   REMARKS
BATTLE CREEK   MOSUNNY   74  54  49 VRB7      30.20S
6HR MIN TEMP:  58; 6HR MAX TEMP:  74;

BENTON HARBOR  SUNNY     70  51  51 NW7       30.20F
6HR MIN TEMP:  58; 6HR MAX TEMP:  70;

BIG RAPIDS     SUNNY     70  46  42 CALM      30.19F
6HR MIN TEMP:  53; 6HR MAX TEMP:  71;

COLDWATER      PTSUNNY   73  57  57 N6        30.19S
6HR MIN TEMP:  59; 6HR MAX TEMP:  73;

FREMONT        FAIR      71  47  41 N3        30.20S
6HR MIN TEMP:  56; 6HR MAX TEMP:  72;

HOLLAND        MOSUNNY   73  50  44 VRB3      30.20F
6HR MIN TEMP:  61; 6HR MAX TEMP:  76;

GRAND RAPIDS   MOSUNNY   73  54  51 VRB3      30.20S
6HR MIN TEMP:  60; 6HR MAX TEMP:  73;

IONIA          FAIR      70  52  52 CALM      30.20S
KALAMAZOO      SUNNY     74  52  46 VRB3      30.20S
6HR MIN TEMP:  60; 6HR MAX TEMP:  74;

LUDINGTON      SUNNY     71  53  53 SW8       30.20S
6HR MIN TEMP:  55; 6HR MAX TEMP:  72;

MARSHALL       PTSUNNY   68  55  61 NE3       30.19S
MOUNT PLEASANT SUNNY     70  48  45 N3        30.20S
6HR MIN TEMP:  56; 6HR MAX TEMP:  70;

MUSKEGON       MOSUNNY   74  52  46 W12       30.20S
6HR MIN TEMP:  60; 6HR MAX TEMP:  75;

SOUTH HAVEN    SUNNY     71  57  60 NW9       30.20F
$$
MIZ016>042-101900-
NORTHERN LOWER MICHIGAN

CITY           SKY/WX    TMP DP  RH WIND       PRES   REMARKS
ALPENA         SUNNY     72  48  42 S6        30.19F
6HR MIN TEMP:  53; 6HR MAX TEMP:  72;

BEAVER ISLAND  SUNNY     69  51  54 SW9       30.20S
6HR MIN TEMP:  55; 6HR MAX TEMP:  69;

BELLAIRE       SUNNY     71  44  38 CALM      30.19F
6HR MIN TEMP:  49; 6HR MAX TEMP:  71;

CADILLAC       SUNNY     70  46  42 W5        30.20S
CHARLEVOIX     SUNNY     66  48  51 N6        30.23F
6HR MIN TEMP:  55; 6HR MAX TEMP:  67;

FRANKFORT      SUNNY     72  50  47 W8        30.20S
GAYLORD        SUNNY     68  44  42 VRB3      30.20F
6HR MIN TEMP:  48; 6HR MAX TEMP:  68;

GRAYLING       SUNNY     69  40  34 CALM      30.20F
6HR MIN TEMP:  48; 6HR MAX TEMP:  69;

HARBOR SPRINGS SUNNY     65  51  60 SW7       30.19S
HOUGHTON LAKE  SUNNY     68  44  42 SW9       30.21S
6HR MIN TEMP:  49; 6HR MAX TEMP:  69;

MANISTEE       MOSUNNY   70  48  46 NW7       30.21S
OSCODA         SUNNY     67  47  48 E6        30.21S
PELLSTON       PTSUNNY   72  47  40 VRB5      30.19F
6HR MIN TEMP:  51; 6HR MAX TEMP:  72;

ROGERS CITY    SUNNY     64  52  63 N6        30.22S
TRAVERSE CITY  MOSUNNY   71  45  39 E7        30.19F
6HR MIN TEMP:  54; 6HR MAX TEMP:  71;

$$
MIZ007>008-015-101900-
EASTERN UPPER MICHIGAN

CITY           SKY/WX    TMP DP  RH WIND       PRES   REMARKS
KINROSS        MOSUNNY   72  46  40 S7        30.17F
6HR MIN TEMP:  48; 6HR MAX TEMP:  72;

MACKINAC ISLAN SUNNY     65  50  59 SW3       30.20S
6HR MIN TEMP:  55; 6HR MAX TEMP:  65;

NEWBERRY       PTSUNNY   69  53  58 S10G20    30.17F
S. S. MARIE    SUNNY     71  45  39 NW9       30.17S
6HR MIN TEMP:  52; 6HR MAX TEMP:  71;

$$
MIZ004>006-011>014-085-101900-
CENTRAL UPPER MICHIGAN

CITY           SKY/WX    TMP DP  RH WIND       PRES   REMARKS
MANISTIQUE     SUNNY     63  53  70 S10G16    30.19S
6HR MIN TEMP:  55; 6HR MAX TEMP:  65;

ESCANABA       SUNNY     66  55  68 S15G21    30.17S
6HR MIN TEMP:  52; 6HR MAX TEMP:  66;

MENOMINEE      MOSUNNY   70  55  60 SE15      30.16S
6HR MIN TEMP:  54; 6HR MAX TEMP:  72;

SAWYER-GWINN   MOSUNNY   72  46  40 SW8       30.14F
$$
MIZ001>003-009>011-084-101900-
WESTERN UPPER MICHIGAN

CITY           SKY/WX    TMP DP  RH WIND       PRES   REMARKS
IRON MOUNTAIN  MOSUNNY   71  47  42 SW3       30.14S
6HR MIN TEMP:  50; 6HR MAX TEMP:  74;

HOUGHTON       MOSUNNY   73  46  38 S6        30.10F
6HR MIN TEMP:  57; 6HR MAX TEMP:  74;

COPPER HARBOR    N/A     66  46  48 E3        30.11S
6HR MIN TEMP:  57; 6HR MAX TEMP:  68;

$$

ABBREVIATIONS USED IN REMARKS
   TC - TEMPERATURE IN CELSIUS
  WCI - WIND CHILL INDEX
   HX - HEAT INDEX
  VSB - VISIBILITY



USA.gov is the U.S. government's official web portal to all federal, state and local government web resources and services.